Regional Weather Roundup
Issued by NWS

Home | Current Version | Previous Version | Graphics & Text | Print | Product List | Glossary On
Versions: 1 2 3 4 5 6 7 8 9 10 11 12 13 14 15 16 17 18 19 20 21 22 23 24 25 26 27 28 29 30 31 32 33 34 35 36 37 38 39 40 41 42 43 44 45 46 47 48 49 50
000
ASUS45 KCYS 021610
RWRWY

WYOMING REGIONAL WEATHER ROUNDUP
NATIONAL WEATHER SERVICE CHEYENNE WY
1000 AM MDT THU JUL 02 2015

NOTE:  "FAIR" INDICATES FEW OR NO CLOUDS BELOW 12,000 FEET
WITH NO SIGNIFICANT WEATHER AND/OR OBSTRUCTIONS TO VISIBILITY.

WYZ001-021700-
YELLOWSTONE NATIONAL PARK

CITY           SKY/WX    TMP DP  RH WIND       PRES   REMARKS
LK YELLOWSTONE   N/A     65  46  50 E3        30.39S
W YELLOWSTONE  NOT AVBL

$$
WYZ002>013-054>058-071-098>099-021700-
NORTHERN WYOMING

CITY           SKY/WX    TMP DP  RH WIND       PRES   REMARKS
JACKSON        SUNNY     70  50  49 CALM      30.27F
CODY           FAIR      72  54  53 NE12      30.24F
GREYBULL       FAIR      76  51  41 CALM      30.15F
WORLAND        FAIR      74  53  48 CALM      30.17F
SHERIDAN       FAIR      76  56  49 N5        30.18S
BUFFALO        FAIR      70  56  61 N9        30.23S
GILLETTE       FAIR      73  55  53 N9        30.18S
NEWCASTLE      NOT AVBL

$$
WYZ014>020-022>026-101>103-021700-
CENTRAL WYOMING

CITY           SKY/WX    TMP DP  RH WIND       PRES   REMARKS
BIG PINEY      FAIR      73  50  44 S16       30.32F
PINEDALE       FAIR      70  43  37 CALM      30.34S
DUBOIS         NOT AVBL
LANDER         FAIR      73  51  46 NE7       30.25F
RIVERTON       FAIR      72  51  47 VRB5      30.26S
CASPER         FAIR      71  57  61 CALM      30.23F
DOUGLAS        FAIR      73  61  65 NW8       30.21S

$$
WYZ021-027>030-104>119-021700-
SOUTHERN WYOMING

CITY           SKY/WX    TMP DP  RH WIND       PRES   REMARKS
EVANSTON       FAIR      75  42  30 S5        30.30F
KEMMERER       FAIR      73  46  38 SE16G22   30.33
FORT BRIDGER   SUNNY     77  45  31 SE10      30.33S
ROCK SPRINGS   FAIR      71  53  52 E7        30.30F
RAWLINS        FAIR      69  54  58 SE8       30.30F
SARATOGA       FAIR      70  48  46 CALM      30.31
LARAMIE        FAIR      65  53  65 CALM      30.33F
CHEYENNE       FAIR      70  57  63 W8        30.26S
TORRINGTON     FAIR      75  60  59 NW9       30.13F

$$


USA.gov is the U.S. government's official web portal to all federal, state and local government web resources and services.